Location: Shepherdstown, WV
(39.4326°N, 77.8042°W)
Time: 05:35:40
(UTC-04:00)

SR - Pass Details

Date: 09 August 2021
Orbit: 581 x 874 km, 66.7° (Epoch: 24 September)

Event Time Altitude Azimuth Distance (km) Brightness Sun altitude
Rises 13:31:54 0° 337° (NNW) 3,058 ? 66.0°
Reaches altitude 10° 13:34:28 10° 346° (NNW) 2,089 ? 65.9°
Maximum altitude 13:38:49 37° 54° (NE) 990 ? 65.7°
Drops below altitude 10° 13:42:52 10° 122° (ESE) 1,947 ? 65.5°
Sets 13:45:11 0° 131° (SE) 2,820 ? 65.4°
